• In Hungary
  • List of Countries
  • For 7 days
  • Water Temperature
  • Satellite Maps
  • Weather Map
  • News
  • Weather Widgets
  • user-avatar
    Login

    Hourly Weather Ariccia

    Today, 24 September, Monday

    Time Temperature Precipitation Wind Pressure Humidity
    00:00 +20°C° 0 mm 2 mps 728 mmHg 86%
    01:00 +20°C° 0 mm 2 mps 728 mmHg 87%
    02:00 +20°C° 0 mm 2 mps 728 mmHg 87%
    03:00 +20°C° 0 mm 2 mps 727 mmHg 87%
    04:00 +20°C° 0 mm 3 mps 727 mmHg 88%
    05:00 +20°C° 0 mm 2 mps 727 mmHg 86%
    06:00 +20°C° 0 mm 2 mps 727 mmHg 84%
    07:00 +21°C° 0 mm 2 mps 727 mmHg 82%
    08:00 +23°C° 0 mm 2 mps 727 mmHg 75%
    09:00 +25°C° 0 mm 2 mps 727 mmHg 68%
    10:00 +27°C° 0 mm 2 mps 727 mmHg 61%
    11:00 +27°C° 0 mm 2 mps 727 mmHg 59%
    12:00 +28°C° 0 mm 3 mps 727 mmHg 56%
    13:00 +29°C° 0 mm 3 mps 728 mmHg 54%
    14:00 +28°C° 0 mm 3 mps 728 mmHg 57%
    15:00 +28°C° 0 mm 3 mps 728 mmHg 59%
    16:00 +27°C° 0 mm 3 mps 728 mmHg 61%
    17:00 +26°C° 0.1 mm 3 mps 728 mmHg 67%
    18:00 +25°C° 0.1 mm 3 mps 729 mmHg 72%
    19:00 +23°C° 0.1 mm 2 mps 729 mmHg 77%
    20:00 +22°C° 0.1 mm 3 mps 730 mmHg 75%
    21:00 +21°C° 0.1 mm 4 mps 730 mmHg 73%
    22:00 +20°C° 0.1 mm 4 mps 731 mmHg 71%
    23:00 +20°C° 0.1 mm 4 mps 731 mmHg 68%

    Tomorrow, 25 September, Tuesday

    Time Temperature Precipitation Wind Pressure Humidity
    00:00 +19°C° 0.1 mm 4 mps 731 mmHg 66%
    01:00 +18°C° 0.1 mm 4 mps 731 mmHg 63%
    02:00 +18°C° 0 mm 4 mps 731 mmHg 61%
    03:00 +18°C° 0 mm 4 mps 731 mmHg 58%
    04:00 +18°C° 0 mm 4 mps 731 mmHg 56%
    05:00 +17°C° 0.2 mm 4 mps 732 mmHg 56%
    06:00 +17°C° 0.2 mm 4 mps 732 mmHg 55%
    07:00 +17°C° 0.2 mm 4 mps 732 mmHg 55%
    08:00 +15°C° 0.3 mm 4 mps 733 mmHg 57%
    09:00 +15°C° 0.3 mm 4 mps 733 mmHg 59%
    10:00 +15°C° 0.3 mm 4 mps 733 mmHg 61%
    11:00 +15°C° 0.1 mm 4 mps 733 mmHg 61%
    12:00 +15°C° 0.1 mm 4 mps 733 mmHg 60%
    13:00 +16°C° 0.1 mm 3 mps 733 mmHg 59%
    14:00 +17°C° 0 mm 3 mps 733 mmHg 56%
    15:00 +18°C° 0 mm 3 mps 733 mmHg 52%
    16:00 +19°C° 0 mm 2 mps 733 mmHg 48%
    17:00 +18°C° 0 mm 2 mps 734 mmHg 49%
    18:00 +17°C° 0 mm 2 mps 734 mmHg 51%
    19:00 +18°C° 0 mm 1 mps 734 mmHg 52%
    20:00 +16°C° 0 mm 2 mps 734 mmHg 53%
    21:00 +15°C° 0 mm 2 mps 735 mmHg 54%
    22:00 +14°C° 0 mm 2 mps 735 mmHg 56%
    23:00 +13°C° 0 mm 3 mps 735 mmHg 56%

    Day after tomorrow, 26 September, Wednesday

    Time Temperature Precipitation Wind Pressure Humidity
    00:00 +12°C° 0 mm 3 mps 735 mmHg 56%
    01:00 +12°C° 0 mm 3 mps 735 mmHg 56%
    02:00 +11°C° 0 mm 3 mps 735 mmHg 57%
    03:00 +11°C° 0 mm 3 mps 735 mmHg 58%
    04:00 +11°C° 0 mm 3 mps 735 mmHg 58%
    05:00 +11°C° 0 mm 3 mps 735 mmHg 58%
    06:00 +11°C° 0 mm 3 mps 736 mmHg 57%
    07:00 +11°C° 0 mm 3 mps 736 mmHg 56%
    08:00 +14°C° 0 mm 3 mps 736 mmHg 48%
    09:00 +17°C° 0 mm 3 mps 737 mmHg 40%
    10:00 +20°C° 0 mm 2 mps 737 mmHg 31%
    11:00 +21°C° 0 mm 2 mps 737 mmHg 29%
    12:00 +23°C° 0 mm 2 mps 737 mmHg 27%
    13:00 +25°C° 0 mm 1 mps 737 mmHg 24%
    14:00 +24°C° 0 mm 2 mps 737 mmHg 27%
    15:00 +24°C° 0 mm 2 mps 737 mmHg 29%
    16:00 +24°C° 0 mm 2 mps 737 mmHg 31%
    17:00 +21°C° 0 mm 2 mps 737 mmHg 37%
    18:00 +19°C° 0 mm 2 mps 737 mmHg 44%
    19:00 +17°C° 0 mm 2 mps 737 mmHg 50%
    20:00 +16°C° 0 mm 2 mps 737 mmHg 52%
    21:00 +15°C° 0 mm 2 mps 738 mmHg 54%
    22:00 +15°C° 0 mm 1 mps 738 mmHg 56%
    23:00 +14°C° 0 mm 2 mps 738 mmHg 54%

    27 September, Thursday

    Time Temperature Precipitation Wind Pressure Humidity
    00:00 +14°C° 0 mm 2 mps 738 mmHg 52%
    01:00 +14°C° 0 mm 2 mps 738 mmHg 50%
    02:00 +14°C° 0 mm 2 mps 737 mmHg 48%
    03:00 +13°C° 0 mm 2 mps 737 mmHg 47%
    04:00 +13°C° 0 mm 2 mps 737 mmHg 45%
    05:00 +14°C° 0 mm 2 mps 737 mmHg 43%
    06:00 +14°C° 0 mm 2 mps 737 mmHg 42%
    07:00 +14°C° 0 mm 2 mps 736 mmHg 40%
    08:00 +17°C° 0 mm 2 mps 736 mmHg 37%
    09:00 +20°C° 0 mm 1 mps 737 mmHg 34%
    10:00 +23°C° 0 mm 1 mps 737 mmHg 32%
    11:00 +23°C° 0 mm 2 mps 736 mmHg 30%
    12:00 +24°C° 0 mm 2 mps 736 mmHg 29%
    13:00 +25°C° 0 mm 2 mps 736 mmHg 27%
    14:00 +25°C° 0 mm 3 mps 735 mmHg 29%
    15:00 +25°C° 0 mm 3 mps 735 mmHg 30%
    16:00 +25°C° 0 mm 3 mps 734 mmHg 31%
    17:00 +22°C° 0 mm 3 mps 734 mmHg 37%
    18:00 +20°C° 0 mm 3 mps 733 mmHg 42%
    19:00 +18°C° 0 mm 3 mps 733 mmHg 48%
    20:00 +18°C° 0 mm 3 mps 733 mmHg 48%
    21:00 +17°C° 0 mm 3 mps 732 mmHg 49%
    22:00 +17°C° 0 mm 3 mps 732 mmHg 49%
    23:00 +17°C° 0 mm 2 mps 732 mmHg 48%

    28 September, Friday

    Time Temperature Precipitation Wind Pressure Humidity
    00:00 +16°C° 0 mm 2 mps 731 mmHg 47%
    01:00 +16°C° 0 mm 2 mps 731 mmHg 46%
    02:00 +16°C° 0 mm 2 mps 730 mmHg 45%
    03:00 +15°C° 0 mm 2 mps 730 mmHg 45%
    04:00 +15°C° 0 mm 2 mps 730 mmHg 44%
    05:00 +16°C° 0 mm 2 mps 729 mmHg 44%
    06:00 +16°C° 0 mm 2 mps 729 mmHg 43%
    07:00 +16°C° 0 mm 2 mps 729 mmHg 43%
    08:00 +20°C° 0 mm 1 mps 729 mmHg 39%
    09:00 +22°C° 0 mm 1 mps 729 mmHg 35%
    10:00 +25°C° 0 mm 1 mps 729 mmHg 31%
    11:00 +25°C° 0 mm 1 mps 729 mmHg 30%
    12:00 +26°C° 0 mm 2 mps 729 mmHg 29%
    13:00 +27°C° 0 mm 2 mps 728 mmHg 28%
    14:00 +27°C° 0 mm 2 mps 728 mmHg 31%
    15:00 +26°C° 0 mm 2 mps 728 mmHg 33%
    16:00 +26°C° 0 mm 3 mps 727 mmHg 35%
    17:00 +24°C° 0 mm 2 mps 727 mmHg 42%
    18:00 +21°C° 0 mm 2 mps 727 mmHg 48%
    19:00 +20°C° 0 mm 1 mps 727 mmHg 55%
    20:00 +20°C° 0 mm 1 mps 727 mmHg 56%
    21:00 +19°C° 0 mm 1 mps 727 mmHg 56%
    22:00 +19°C° 0 mm 1 mps 728 mmHg 57%
    23:00 +19°C° 0 mm 1 mps 727 mmHg 57%

    29 September, Saturday

    Time Temperature Precipitation Wind Pressure Humidity
    00:00 +18°C° 0 mm 1 mps 727 mmHg 57%
    01:00 +18°C° 0 mm 1 mps 727 mmHg 57%
    02:00 +18°C° 0 mm 1 mps 727 mmHg 57%
    03:00 +18°C° 0 mm 1 mps 727 mmHg 57%
    04:00 +18°C° 0 mm 1 mps 727 mmHg 57%
    05:00 +18°C° 0 mm 1 mps 727 mmHg 56%
    06:00 +18°C° 0 mm 1 mps 727 mmHg 56%
    07:00 +17°C° 0 mm 2 mps 728 mmHg 55%
    08:00 +21°C° 0 mm 1 mps 728 mmHg 49%
    09:00 +23°C° 0 mm 1 mps 728 mmHg 44%
    10:00 +25°C° 0 mm 1 mps 729 mmHg 39%
    11:00 +26°C° 0 mm 2 mps 729 mmHg 38%
    12:00 +27°C° 0 mm 2 mps 728 mmHg 37%
    13:00 +27°C° 0 mm 2 mps 728 mmHg 36%
    14:00 +27°C° 0 mm 2 mps 728 mmHg 38%
    15:00 +27°C° 0 mm 2 mps 728 mmHg 41%
    16:00 +26°C° 0 mm 2 mps 728 mmHg 43%
    17:00 +24°C° 0 mm 2 mps 728 mmHg 51%
    18:00 +23°C° 0 mm 1 mps 728 mmHg 59%
    19:00 +21°C° 0 mm 1 mps 729 mmHg 67%
    20:00 +20°C° 0 mm 1 mps 729 mmHg 68%
    21:00 +20°C° 0 mm 1 mps 729 mmHg 69%
    22:00 +20°C° 0 mm 1 mps 729 mmHg 70%
    23:00 +19°C° 0 mm 1 mps 729 mmHg 70%
    Show more

    3.3.7123123